Location: Palombina Nuova
(43.6167°N, 13.4000°E)
Time: 09:25:35
(UTC+00:00)

STARLINK-1045 - Pass Details

Date: 17 February 2020
Orbit: 548 x 551 km, 53.0° (Epoch: 28 March)

Event Time Altitude Azimuth Distance (km) Brightness Sun altitude
Exits shadow 04:02:16 50° 182° (S) 707 4.0 -22.5°
Drops below altitude 10° 04:05:40 10° 142° (SE) 1,818 6.7 -21.9°
Sets 04:07:55 0° 138° (SE) 2,708 7.7 -21.5°
